Weather History for Ellsworth AFB, SD

Change the Weather History Date:

Wednesday, May 1, 2013

  Actual Average Record
Temperature  
Mean Temperature 40 °F -  
Max Temperature 49 °F 60 °F 70 °F (2012)
Min Temperature 30 °F 37 °F 28 °F (2002)
Degree Days  
Heating Degree Days 25    
Moisture  
Dew Point 17 °F    
Average Humidity 42    
Maximum Humidity 62    
Minimum Humidity 21    
Precipitation  
Precipitation 0.00 in - - ()
Sea Level Pressure  
Sea Level Pressure 30.49 in    
Wind  
Wind Speed 12 mph (North)    
Max Wind Speed 18 mph    
Max Gust Speed 23 mph    
Visibility 10 miles    
Events      
Averages and records for this station are not official NWS values.
T = Trace of Precipitation, MM = Missing Value Source: NWS Daily Summary

Daily Weather History Graph

Daily Weather History Graph

Search for Another Location

Airport:

Trip Planner

Search our weather history database for the weather conditions in past years. The results will help you decide how hot, cold, wet, or windy it might be!

Date:

Astronomy

May. 01, 2013 Rise Set
Actual Time 5:43 AM MDT 7:56 PM MDT
Civil Twilight 5:11 AM MDT 8:28 PM MDT
Nautical Twilight 4:32 AM MDT 9:07 PM MDT
Astronomical Twilight 3:48 AM MDT 9:51 PM MDT
Moon 1:07 AM MDT (5/1) 11:24 AM MDT (5/1)
Length of Visible Light 15h 16m
Length of Day
14h 13m
Waning Gibbous, 58% of the Moon is Illuminated
May 1
Waning Gibbous
May 2
Last Quarter
May 9
New
May 17
First Quarter
May 24
Full

Hourly Weather History & Observations

Time (MDT) Temp. Windchill Dew Point Humidity Pressure Visibility Wind Dir Wind Speed Gust Speed Precip Events Conditions
12:58 AM 33.6 °F 23.7 °F 20.3 °F 58% 30.25 in 10.0 mi NNW 15.0 mph - N/A   Overcast
1:58 AM 32.9 °F 21.6 °F 19.4 °F 58% 30.24 in 10.0 mi NNW 18.4 mph - N/A   Mostly Cloudy
2:58 AM 32.0 °F 24.2 °F 20.1 °F 62% 30.28 in 10.0 mi North 9.2 mph - N/A   Overcast
3:58 AM 32.5 °F 23.2 °F 20.1 °F 60% 30.34 in 10.0 mi NNW 12.7 mph - N/A   Overcast
4:58 AM 32.7 °F 23.9 °F 19.4 °F 58% 30.38 in 10.0 mi NNW 11.5 mph - N/A   Overcast
5:58 AM 32.2 °F 23.2 °F 18.5 °F 57% 30.40 in 10.0 mi North 11.5 mph - N/A   Overcast
6:58 AM 31.8 °F 23.9 °F 19.0 °F 59% 30.46 in 10.0 mi North 9.2 mph - N/A   Mostly Cloudy
7:58 AM 33.6 °F 25.0 °F 18.1 °F 53% 30.48 in 10.0 mi North 11.5 mph - N/A   Scattered Clouds
8:58 AM 34.3 °F 26.5 °F 19.0 °F 54% 30.49 in 10.0 mi North 10.4 mph - N/A   Mostly Cloudy
9:58 AM 36.7 °F 29.9 °F 18.0 °F 47% 30.51 in 10.0 mi NNE 9.2 mph - N/A   Scattered Clouds
10:58 AM 38.8 °F 31.2 °F 17.1 °F 41% 30.53 in 10.0 mi North 12.7 mph 18.4 mph N/A   Mostly Cloudy
11:58 AM 41.4 °F 34.7 °F 18.1 °F 39% 30.52 in 10.0 mi North 11.5 mph 19.6 mph N/A   Mostly Cloudy
12:39 PM 42.8 °F 35.8 °F 17.6 °F 36% 30.43 in 10.0 mi NNW 13.8 mph 21.9 mph N/A   Mostly Cloudy
12:58 PM 43.9 °F 36.8 °F 18.7 °F 37% 30.51 in 10.0 mi North 15.0 mph 19.6 mph N/A   Partly Cloudy
1:25 PM 44.6 °F 38.1 °F 19.4 °F 37% 30.43 in 10.0 mi North 13.8 mph - N/A   Clear
1:58 PM 46.0 °F 39.3 °F 17.2 °F 32% 30.52 in 10.0 mi North 16.1 mph - N/A   Partly Cloudy
2:42 PM 46.4 °F 39.5 °F 15.8 °F 29% 30.44 in 10.0 mi North 17.3 mph 23.0 mph N/A   Partly Cloudy
2:58 PM 46.9 °F - 16.2 °F 29% 30.53 in 10.0 mi North 13.8 mph 20.7 mph N/A   Partly Cloudy
3:58 PM 47.8 °F - 15.6 °F 28% 30.53 in 10.0 mi NNW 8.1 mph 20.7 mph N/A   Partly Cloudy
4:58 PM 49.1 °F - 15.4 °F 26% 30.54 in 10.0 mi North 12.7 mph - N/A   Scattered Clouds
5:58 PM 48.0 °F - 9.9 °F 21% 30.55 in 10.0 mi NE 11.5 mph - N/A   Clear
6:58 PM 47.3 °F - 10.6 °F 23% 30.57 in 10.0 mi NNE 10.4 mph - N/A   Clear
7:58 PM 44.2 °F 40.3 °F 10.9 °F 26% 30.61 in 10.0 mi North 6.9 mph - N/A   Clear
8:58 PM 42.3 °F 39.4 °F 10.6 °F 27% 30.63 in 10.0 mi NNE 4.6 mph - N/A   Clear
9:58 PM 38.5 °F - 14.0 °F 37% 30.65 in 10.0 mi SSW 2.3 mph - N/A   Clear
10:58 PM 34.2 °F 31.2 °F 13.8 °F 43% 30.66 in 10.0 mi West 3.5 mph - N/A   Clear
11:58 PM 30.4 °F 24.5 °F 15.4 °F 54% 30.68 in 10.0 mi West 5.8 mph - N/A   Clear